Content
SEND FEEDBACK

Daily
Averages
Monthly
Summary
Brazil

TERESINA, PIAUI


Home > South America > Brazil > Piaui
Elevation: 328 feet     Latitude: 05 03S     Longitude: 042 48W

WEATHER
 
SELECT A DAY
Number of Records: 163,911;   Date Range: 6/30/96 - 8/31/14
 
SHARE

PRINT THIS DATA

[ ← Previous Day ]
WEATHER ALMANAC - MARCH 13, 2013
[ Next Day → ]
[ °C ]   °F
Weather ElementAverageHighLow
Temperature86.8 °F97 °F (3:00 pm)78.8 °F (3:00 am)
Dewpoint75.2 °F78.8 °F (11:00 pm)71 °F (3:00 pm)
Humidity69.8 %94 % (3:00 am)34 % (3:00 pm)
Barometer29.78 in29.86 in (9:00 am)29.71 in (4:00 pm)
Wind Speed2.4 mph8.1 mph (10:00 pm)
Weather ElementAverage
Visibility7.7 mi
Wind DirectionSSE (161.2 °)

Weather ElementTotal
Precipitation---
Cooling Degree Days22.9 (Base 65)
Growing Degree Days37.9 (Base 50)
Averaged from 27 records on March 13, 2013
WEATHER CONDITIONS BREAKOUT
WIND DIRECTION BREAKOUT
WEATHER BY HOUR - MARCH 13, 2013
[ °C ]   °F
Local TimeTemperatureDewpointHumidityBarometerVisibilityWind DirectionWind SpeedGust SpeedPrecipitationEventsConditions
1:00 AM80.6 °F77.0 °F89 %29.80 inNNW (340°)2.3 mphClear
2:00 AM80.6 °F77.0 °F89 %29.77 inNorth (350°)3.5 mphClear
3:00 AM79.0 °F77.0 °F91 %29.77 in12.0 miNorth (350°)2.3 mphScattered Clouds
3:00 AM78.8 °F77.0 °F94 %29.77 in6.2 miNorth (350°)2.3 mphMostly Cloudy
4:00 AM78.8 °F77.0 °F94 %29.74 inNorth (350°)2.3 mphClear
5:00 AM78.8 °F77.0 °F94 %29.77 inNorth (350°)1.2 mphClear
6:00 AM78.8 °F77.0 °F94 %29.77 inNNE (30°)1.2 mphClear
7:00 AM78.8 °F77.0 °F94 %29.80 in6.2 miCalmMostly Cloudy
8:00 AM82.4 °F77.0 °F84 %29.83 in6.2 miNE (40°)3.5 mphScattered Clouds
9:00 AM85.0 °F75.0 °F66 %29.85 in12.0 miNE (40°)3.5 mphScattered Clouds
9:00 AM86.0 °F75.2 °F70 %29.86 in6.2 miNE (40°)3.5 mphMostly Cloudy
10:00 AM87.8 °F73.4 °F62 %29.86 in6.2 miENE (70°)4.6 mphScattered Clouds
11:00 AM91.4 °F73.4 °F55 %29.83 in6.2 miNE (40°)3.5 mphScattered Clouds
12:00 PM91.4 °F73.4 °F55 %29.83 in6.2 miEast (80°)3.5 mphMostly Cloudy
1:00 PM93.2 °F71.6 °F49 %29.80 in6.2 miNNE (20°)2.3 mphMostly Cloudy
2:00 PM96.8 °F71.6 °F44 %29.80 in6.2 miCalmMostly Cloudy
3:00 PM97.0 °F71.0 °F34 %29.75 in12.0 miWest (260°)2.3 mphPartly Cloudy
3:00 PM96.8 °F71.6 °F44 %29.74 in6.2 miWest (260°)2.3 mphMostly Cloudy
4:00 PM95.0 °F73.4 °F49 %29.71 inWest (280°)2.3 mphClear
5:00 PM95.0 °F73.4 °F49 %29.71 inNNW (330°)2.3 mphClear
6:00 PM91.4 °F73.4 °F55 %29.71 inCalmClear
7:00 PM89.6 °F75.2 °F62 %29.71 inWSW (250°)1.2 mphClear
8:00 PM87.8 °F75.2 °F66 %29.74 inNNW (330°)1.2 mphClear
9:00 PM86.0 °F77.0 °F69 %29.77 in12.0 miCalmClear
9:00 PM86.0 °F77.0 °F74 %29.77 inCalmClear
10:00 PM86.0 °F77.0 °F74 %29.80 in6.2 miNNE (20°)8.1 mphScattered Clouds
11:00 PM84.2 °F78.8 °F84 %29.83 in6.2 miNorth (10°)5.8 mphRainLight Rain
Hourly data recorded from SBTE, located miles away from Teresina, Piaui







STORIES FROM OUR PARTNERS